Flag for U.S.A. Weather past 2 weeks in Salem, Oregon, U.S.A.

Now
77 °F

Sunny.


Feels Like: 78 °F
Forecast: 57 / 75 °F
Wind: 9 mph from Northwest

Location: McNary Field

Current Time: Aug 29, 2014 at 6:17:09 PM

Latest Report: Aug 29, 2014 at 4:56 PM


Visibility: 10 mi

Pressure: 29.95 "Hg

Humidity: 44%

Dew point: 53 °F

Location of SalemLocation

Historic Weather in Salem — Graph

°F

Salem temperature yesterday

Maximum temperature yesterday: 86 °F (at 2:56 PM)
Minimum temperature yesterday: 58 °F (at 6:56 AM)
Average temperature yesterday: 72 °F

Past Weeks' High & Low Weather Summary

 TemperatureHumidityPressure
High95 °F (Aug 26, 4:56 PM)90% (Aug 16, 3:56 AM)30.10 "Hg (Aug 16, 3:56 AM)
Low49 °F (Aug 21, 5:56 AM)16% (Aug 21, 3:56 PM)29.76 "Hg (Aug 18, 6:56 PM)
Average72 °F55%29.97 "Hg
* Reported Aug 14 4:56 PM — Aug 29 4:56 PM, Salem, Weather by CustomWeather, © 2014

Note: Actual official high and low records may vary slightly from our data, if they occured in-between our weather recording intervals... More about our weather records

Advertising

Salem weather history for previous 24 hours

 ConditionsComfort  
Time TempWeatherWind HumidityBarometerVisibility
4:56 PM
Aug 29
77 °FSunny.9 mph44%29.95 "Hg10 mi
3:56 PM77 °FPassing clouds.13 mph42%29.95 "Hg10 mi
2:56 PM78 °FScattered clouds.3 mph42%29.95 "Hg10 mi
1:56 PM76 °FPartly sunny.N/A48%29.97 "Hg10 mi
11:56 AM75 °FOvercast.6 mph52%29.98 "Hg10 mi
10:56 AM74 °FPartly sunny.No wind56%29.99 "Hg10 mi
9:56 AM67 °FPartly sunny.No wind71%30.01 "Hg10 mi
8:56 AM64 °FPassing clouds.3 mph75%30.00 "Hg10 mi
7:56 AM61 °FScattered clouds.No wind83%30.00 "Hg10 mi
6:56 AM59 °FPartly cloudy.No wind87%29.99 "Hg10 mi
5:56 AM58 °FClear.No wind87%29.97 "Hg10 mi
4:56 AM59 °FClear.No wind87%29.98 "Hg10 mi
3:56 AM60 °FClear.3 mph86%29.98 "Hg10 mi
2:56 AM61 °FClear.No wind81%29.98 "Hg10 mi
1:56 AM63 °FClear.No wind78%29.98 "Hg10 mi
12:56 AM64 °FClear.No wind75%29.98 "Hg10 mi
11:56 PM
Aug 28
66 °FClear.3 mph73%29.99 "Hg10 mi
10:56 PM68 °FClear.5 mph68%30.00 "Hg10 mi
9:56 PM70 °FClear.7 mph61%30.00 "Hg10 mi
8:56 PM73 °FClear.6 mph53%29.99 "Hg10 mi
7:56 PM77 °FSunny.8 mph47%29.97 "Hg10 mi
6:56 PM83 °FSunny.13 mph38%29.97 "Hg10 mi
Weather by CustomWeather, © 2014

See weather overviewHow to use our weather pages